SIA228 WSSS-YMML

Flight info

Callsign SIA228
Flight time N/A
Altitude 33000
Route ANITO8B ANITO DCT 04S107E DCT IGUNA DCT TATAN L895 SAPDA/N0496F350 DCT 1600S11345E 18S115E 2000S11625E 2215S11800E 2400S11930E 2620S12200E 3000S12645E 3148S13004E DCT ISLAV/N0484F370 DCT 34S135E DCT KAMBI N640 AD V255 BENDO Y12 ARBEY
Aircraft B77W/H-SDE1E2E3FGHIJ2J3J4J5M1RWXY/LB1D1

Departure

Time 2026-05-04 07:49
Airport Singapore Changi Airport (WSSS)

Arrival

Time N/A
Airport Melbourne Airport (YMML)
Time Latitude Longitude Altitude Speed Heading
2026-05-04 06:29 1.36244 103.98796 34 ft 0 kts 114°
2026-05-04 07:29 1.36244 103.98797 34 ft 0 kts 114°
2026-05-04 07:33 1.36271 103.98732 34 ft 3 kts 99°
2026-05-04 07:33 1.36271 103.98714 34 ft 1 kts 66°
2026-05-04 07:33 1.36269 103.98711 34 ft 0 kts 53°
2026-05-04 07:33 1.36276 103.98722 34 ft 2 kts 58°
2026-05-04 07:34 1.36273 103.98718 34 ft 2 kts 58°
2026-05-04 07:34 1.36268 103.98711 34 ft 0 kts 33°
2026-05-04 07:38 1.36343 103.98749 34 ft 0 kts 23°
2026-05-04 07:38 1.36354 103.98753 34 ft 4 kts 23°
2026-05-04 07:38 1.36406 103.98776 34 ft 11 kts 23°
2026-05-04 07:38 1.36493 103.98810 34 ft 15 kts 13°
2026-05-04 07:39 1.36616 103.98807 34 ft 19 kts 352°
2026-05-04 07:39 1.36741 103.98820 34 ft 14 kts 19°
2026-05-04 07:39 1.36797 103.98879 34 ft 12 kts 90°
2026-05-04 07:39 1.36783 103.98937 34 ft 12 kts 111°
2026-05-04 07:40 1.36774 103.98959 34 ft 12 kts 111°
2026-05-04 07:40 1.36743 103.99036 34 ft 11 kts 112°
2026-05-04 07:40 1.36712 103.99111 34 ft 11 kts 112°
2026-05-04 07:40 1.36678 103.99187 34 ft 13 kts 114°
2026-05-04 07:41 1.36636 103.99281 34 ft 16 kts 113°
2026-05-04 07:41 1.36589 103.99393 34 ft 18 kts 113°
2026-05-04 07:41 1.36533 103.99522 34 ft 21 kts 113°
2026-05-04 07:41 1.36477 103.99655 34 ft 19 kts 113°
2026-05-04 07:42 1.36428 103.99770 34 ft 12 kts 113°
2026-05-04 07:42 1.36407 103.99818 34 ft 2 kts 113°
2026-05-04 07:42 1.36404 103.99825 34 ft 0 kts 113°
2026-05-04 07:45 1.36403 103.99827 34 ft 0 kts 113°
2026-05-04 07:45 1.36396 103.99840 34 ft 4 kts 122°
2026-05-04 07:45 1.36354 103.99872 34 ft 10 kts 161°
2026-05-04 07:45 1.36266 103.99889 34 ft 13 kts 172°
2026-05-04 07:46 1.36182 103.99891 34 ft 11 kts 191°
2026-05-04 07:46 1.36136 103.99875 34 ft 0 kts 202°
2026-05-04 07:46 1.36127 103.99871 34 ft 8 kts 202°
2026-05-04 07:46 1.35908 103.99780 34 ft 66 kts 203°
2026-05-04 07:47 1.35274 103.99513 34 ft 129 kts 203°
2026-05-04 07:47 1.34260 103.99084 40 ft 182 kts 203°
2026-05-04 07:47 1.33079 103.98574 537 ft 188 kts 204°
2026-05-04 07:49 1.21975 103.94687 4540 ft 278 kts 170°
2026-05-04 07:49 1.20092 103.95083 5373 ft 280 kts 166°
2026-05-04 07:49 1.18183 103.95558 5859 ft 284 kts 165°
2026-05-04 07:50 1.16240 103.96045 5952 ft 285 kts 165°
2026-05-04 07:50 1.14328 103.96519 5964 ft 284 kts 165°
2026-05-04 07:50 1.12381 103.97000 5965 ft 283 kts 166°
2026-05-04 07:50 1.10553 103.97696 5953 ft 283 kts 147°
2026-05-04 07:51 1.08926 103.98827 5966 ft 284 kts 142°
2026-05-04 07:51 1.07364 104.00028 5973 ft 289 kts 141°
2026-05-04 07:51 1.05755 104.01274 6727 ft 291 kts 141°
2026-05-04 07:51 1.04193 104.02480 7698 ft 286 kts 141°
2026-05-04 07:52 1.02810 104.03902 8352 ft 289 kts 120°
2026-05-04 07:52 1.01903 104.05690 9038 ft 292 kts 112°
2026-05-04 07:52 1.01112 104.07551 9782 ft 294 kts 111°
2026-05-04 07:52 1.00308 104.09470 10390 ft 302 kts 111°
2026-05-04 07:53 0.99471 104.11455 10716 ft 321 kts 112°
2026-05-04 07:54 0.91515 104.27840 14260 ft 401 kts 121°
2026-05-04 07:55 0.90031 104.30218 14954 ft 405 kts 121°
2026-05-04 07:55 0.88538 104.32613 15675 ft 408 kts 121°
2026-05-04 07:55 0.87035 104.35027 16339 ft 411 kts 121°
2026-05-04 07:55 0.85528 104.37445 16982 ft 415 kts 121°
2026-05-04 07:56 0.83986 104.39921 17602 ft 419 kts 120°
2026-05-04 07:56 0.82442 104.42399 18159 ft 423 kts 120°
2026-05-04 07:56 0.80818 104.44868 18717 ft 428 kts 123°
2026-05-04 07:56 0.79086 104.47281 19316 ft 431 kts 124°
2026-05-04 07:57 0.77333 104.49718 19850 ft 435 kts 124°
2026-05-04 07:57 0.75547 104.52181 20377 ft 439 kts 127°
2026-05-04 07:57 0.73482 104.54432 20892 ft 445 kts 136°
2026-05-04 07:57 0.71047 104.56337 21376 ft 450 kts 145°
2026-05-04 07:58 0.68279 104.57839 21841 ft 456 kts 155°
2026-05-04 07:58 0.65237 104.58915 22337 ft 461 kts 161°
2026-05-04 07:58 0.62148 104.59838 22837 ft 464 kts 161°
2026-05-04 07:58 0.59066 104.60750 23304 ft 467 kts 162°
2026-05-04 07:59 0.55899 104.61687 23762 ft 471 kts 162°
2026-05-04 07:59 0.52773 104.62614 24232 ft 474 kts 162°
2026-05-04 07:59 0.49602 104.63555 24729 ft 476 kts 162°
2026-05-04 07:59 0.46388 104.64509 25202 ft 478 kts 162°
2026-05-04 08:00 0.43194 104.65454 25641 ft 482 kts 162°
2026-05-04 08:00 0.39955 104.66412 26098 ft 484 kts 162°
2026-05-04 08:00 0.36711 104.67372 26585 ft 486 kts 162°
2026-05-04 08:02 0.13512 104.74255 29616 ft 504 kts 162°
2026-05-04 08:02 0.10158 104.75249 30234 ft 502 kts 162°
2026-05-04 08:02 0.06796 104.76246 30887 ft 500 kts 162°
2026-05-04 08:03 0.03452 104.77238 31506 ft 498 kts 162°
2026-05-04 08:03 0.00134 104.78222 32080 ft 496 kts 162°
2026-05-04 08:03 -0.03143 104.79194 32617 ft 495 kts 162°
2026-05-04 08:03 -0.06477 104.80183 32822 ft 498 kts 162°
2026-05-04 08:04 -0.13165 104.82166 32828 ft 493 kts 162°
2026-05-04 08:04 -0.19734 104.84116 32828 ft 493 kts 162°
2026-05-04 08:05 -0.26367 104.86098 32819 ft 493 kts 160°
2026-05-04 08:05 -0.32516 104.89056 32832 ft 490 kts 149°
2026-05-04 08:06 -0.38445 104.92452 32824 ft 491 kts 148°
2026-05-04 08:06 -0.44372 104.95850 32829 ft 489 kts 148°
2026-05-04 08:08 -0.68035 105.09411 32841 ft 488 kts 148°
2026-05-04 08:11 -0.94596 105.24629 32824 ft 487 kts 148°
2026-05-04 08:11 -1.03408 105.29678 32827 ft 486 kts 148°
2026-05-04 08:12 -1.09303 105.33057 32827 ft 486 kts 148°
2026-05-04 08:12 -1.15203 105.36437 32828 ft 486 kts 148°
2026-05-04 08:13 -1.21069 105.39799 32825 ft 485 kts 148°
2026-05-04 08:13 -1.26946 105.43168 32826 ft 488 kts 148°
2026-05-04 08:14 -1.32865 105.46560 32826 ft 485 kts 148°
2026-05-04 08:16 -1.56367 105.60033 32825 ft 486 kts 148°
2026-05-04 08:16 -1.62262 105.63412 32824 ft 487 kts 148°
2026-05-04 08:17 -1.68165 105.66798 32826 ft 486 kts 148°
2026-05-04 08:17 -1.74010 105.70149 32831 ft 487 kts 148°
2026-05-04 08:19 -1.97543 105.83646 32837 ft 487 kts 149°
2026-05-04 08:20 -2.03421 105.87018 32839 ft 486 kts 149°
2026-05-04 08:20 -2.09307 105.90395 32835 ft 487 kts 149°
2026-05-04 08:21 -2.15215 105.93784 32835 ft 488 kts 148°
2026-05-04 08:21 -2.21104 105.97163 32835 ft 489 kts 148°
2026-05-04 08:22 -2.27025 106.00561 32825 ft 488 kts 148°
2026-05-04 08:24 -2.50773 106.14192 32824 ft 493 kts 148°
2026-05-04 08:24 -2.56759 106.17628 32825 ft 493 kts 148°
2026-05-04 08:25 -2.62700 106.21040 32831 ft 493 kts 148°
2026-05-04 08:25 -2.68657 106.24461 32833 ft 492 kts 148°
2026-05-04 08:27 -2.92597 106.38213 32837 ft 496 kts 148°
2026-05-04 08:28 -2.98600 106.41662 32843 ft 495 kts 148°
2026-05-04 08:28 -3.04587 106.45102 32846 ft 495 kts 148°
2026-05-04 08:29 -3.10579 106.48546 32843 ft 494 kts 148°
2026-05-04 08:31 -3.34729 106.62432 32823 ft 505 kts 148°
2026-05-04 08:33 -3.59141 106.76475 32826 ft 506 kts 148°
2026-05-04 08:35 -3.83656 106.90586 32827 ft 506 kts 148°
2026-05-04 08:35 -3.89787 106.94118 32828 ft 508 kts 148°
2026-05-04 08:37 -4.11699 107.05917 32826 ft 512 kts 151°
2026-05-04 08:38 -4.18093 107.09095 32819 ft 510 kts 151°
2026-05-04 08:38 -4.24448 107.12266 32811 ft 510 kts 151°
2026-05-04 08:40 -4.49902 107.25012 32831 ft 510 kts 151°
2026-05-04 08:41 -4.56279 107.28210 32830 ft 510 kts 151°
2026-05-04 08:41 -4.62651 107.31406 32830 ft 510 kts 151°
2026-05-04 08:42 -4.69025 107.34605 32831 ft 508 kts 151°
2026-05-04 08:42 -4.75309 107.37758 32832 ft 504 kts 151°
2026-05-04 08:43 -4.81616 107.40925 32828 ft 505 kts 151°
2026-05-04 08:43 -4.87908 107.44083 32826 ft 504 kts 151°
2026-05-04 08:44 -4.94195 107.47242 32826 ft 504 kts 151°
2026-05-04 08:46 -5.19380 107.59898 32824 ft 505 kts 151°
2026-05-04 08:46 -5.25639 107.63044 32824 ft 505 kts 151°
2026-05-04 08:47 -5.31928 107.66207 32828 ft 505 kts 151°
2026-05-04 08:47 -5.38286 107.69405 32828 ft 506 kts 151°
2026-05-04 08:48 -5.44613 107.72589 32828 ft 507 kts 151°
2026-05-04 08:48 -5.50969 107.75787 32828 ft 507 kts 151°
2026-05-04 08:49 -5.57281 107.78965 32828 ft 508 kts 151°
2026-05-04 08:50 -5.79518 107.90165 32829 ft 512 kts 151°
2026-05-04 08:51 -5.85926 107.93394 32829 ft 512 kts 151°
2026-05-04 08:51 -5.92325 107.96619 32828 ft 513 kts 151°
2026-05-04 08:52 -5.98620 108.00082 32832 ft 511 kts 146°
2026-05-04 08:52 -6.04659 108.03882 32830 ft 512 kts 146°
2026-05-04 08:54 -6.28925 108.19168 32839 ft 513 kts 146°
2026-05-04 08:55 -6.34986 108.22986 32841 ft 513 kts 146°
2026-05-04 08:55 -6.41085 108.26829 32848 ft 514 kts 146°
2026-05-04 08:57 -6.57367 108.45172 32840 ft 509 kts 124°